Time [hr],Date,AE,AE1ch,AE2ch,Temperature,Humidity,Vaper Deficit,Illuminance,CO2,Pressure,SoilTemp,SoilWater,SolutionEC,Dielectricity,PoreEC,SoilEC,DC1ch,DC2ch,MASUA0010014,MASUA0010014,MASUA0010015
0,2023/03/01 00:00,,,,10.78,83.01,9.89,0,789,0,18.28,24.83,1.4505,13.31,2.5355,0.2885,,,
1,2023/03/01 01:00,,,,11.03,83.07,10.05,0,812,0,18.27,24.78,1.4613,13.28,2.5590,0.2903,,,
2,2023/03/01 02:00,,,,11.05,82.26,10.05,0,819,0,18.05,24.77,1.4626,13.27,2.5630,0.2902,,,
3,2023/03/01 03:00,1,1,0,11.20,81.80,10.15,0,827,0,17.77,24.75,1.4746,13.26,2.5855,0.2921,,,
4,2023/03/01 04:00,,,,11.27,81.98,10.20,0,834,0,17.50,24.73,1.4651,13.25,2.5706,0.2897,,,
5,2023/03/01 05:00,,,,11.50,82.37,10.35,1,840,0,17.42,24.76,1.4692,13.27,2.5750,0.2906,,,
6,2023/03/01 06:00,,,,13.34,82.61,11.60,140,866,0,17.11,24.69,1.4821,13.23,2.6047,0.2923,,,
7,2023/03/01 07:00,,,,14.88,83.57,12.75,970,855,0,16.93,24.69,1.4794,13.23,2.6002,0.2914,,,
8,2023/03/01 08:00,,,,20.09,80.25,17.40,4227,722,0,17.00,24.72,1.4770,13.25,2.5929,0.2913,,,
9,2023/03/01 09:00,1,0,1,22.49,77.86,19.99,7012,585,0,17.12,24.71,1.4765,13.24,2.5929,0.2913,,,
10,2023/03/01 10:00,1,1,0,25.26,74.24,23.39,8464,556,0,17.20,24.76,1.4702,13.27,2.5772,0.2905,,,
11,2023/03/01 11:00,3,3,0,26.57,70.66,25.17,4620,589,0,17.61,24.78,1.4612,13.28,2.5588,0.2894,,,
12,2023/03/01 12:00,5,5,0,26.93,65.95,25.67,6171,579,0,17.75,24.74,1.4603,13.26,2.5617,0.2891,,,
13,2023/03/01 13:00,4,4,0,27.05,68.02,25.84,6332,602,0,18.18,24.86,1.4548,13.33,2.5399,0.2894,,,
14,2023/03/01 14:00,3,3,0,26.80,66.86,25.49,4347,613,0,18.59,24.82,1.4523,13.31,2.5390,0.2893,,,
15,2023/03/01 15:00,,,,25.70,74.91,23.98,2608,613,0,18.55,24.88,1.4517,13.34,2.5325,0.2894,,,
16,2023/03/01 16:00,1,0,1,23.34,82.41,20.99,1091,585,0,18.98,24.94,1.4439,13.38,2.5123,0.2889,,,
17,2023/03/01 17:00,,,,20.30,83.64,17.61,111,634,0,18.80,24.94,1.4434,13.38,2.5112,0.2886,,,
18,2023/03/01 18:00,,,,19.62,83.50,16.93,0,714,0,19.19,24.94,1.4393,13.37,2.5049,0.2882,,,
19,2023/03/01 19:00,1,1,0,16.76,80.18,14.28,0,744,0,19.32,24.91,1.4416,13.36,2.5111,0.2887,,,
20,2023/03/01 20:00,1,1,0,13.82,79.43,11.95,0,734,0,19.12,24.92,1.4533,13.36,2.5313,0.2908,,,
21,2023/03/01 21:00,,,,12.51,79.48,11.02,0,717,0,18.89,24.83,1.4547,13.31,2.5425,0.2902,,,
22,2023/03/01 22:00,1,1,0,12.23,82.39,10.83,0,727,0,18.71,24.85,1.4319,13.33,2.5003,0.2856,,,
23,2023/03/01 23:00,,,,11.95,83.23,10.64,0,737,0,18.52,24.77,1.4445,13.27,2.5311,0.2872,,,
24,2023/03/02 00:00,,,,11.84,83.73,10.57,0,741,0,18.30,24.76,1.4473,13.27,2.5362,0.2875,,,
25,2023/03/02 01:00,,,,11.01,82.34,10.03,0,733,0,18.22,24.73,1.4506,13.25,2.5454,0.2878,,,
26,2023/03/02 02:00,,,,11.16,81.66,10.13,0,739,0,18.03,24.71,1.4527,13.24,2.5515,0.2878,,,
27,2023/03/02 03:00,1,1,0,12.01,78.79,10.68,0,716,0,17.93,24.70,1.4546,13.23,2.5555,0.2879,,,
28,2023/03/02 04:00,,,,12.36,75.75,10.92,0,697,0,17.75,24.61,1.4493,13.18,2.5557,0.2861,,,
29,2023/03/02 05:00,1,1,0,12.74,78.14,11.17,1,711,0,17.43,24.59,1.4557,13.17,2.5685,0.2868,,,
30,2023/03/02 06:00,,,,14.08,82.71,12.14,261,744,0,17.47,24.52,1.4636,13.13,2.5907,0.2878,,,
31,2023/03/02 07:00,,,,15.30,82.66,13.08,1092,734,0,17.21,24.56,1.4671,13.15,2.5926,0.2885,,,
32,2023/03/02 08:00,,,,20.63,73.15,17.96,6754,627,0,17.18,24.50,1.4746,13.11,2.6121,0.2895,,,
33,2023/03/02 09:00,2,2,0,25.08,65.20,23.16,16048,547,0,17.11,24.59,1.4584,13.17,2.5740,0.2868,,,
34,2023/03/02 10:00,10,6,4,27.08,62.95,25.88,11950,547,0,17.41,24.64,1.4614,13.20,2.5736,0.2882,,,
35,2023/03/02 11:00,1,1,0,24.82,79.58,22.82,4458,572,0,17.65,24.70,1.4563,13.23,2.5587,0.2879,,,
36,2023/03/02 12:00,1,1,0,25.13,71.28,23.22,6802,562,0,17.84,24.76,1.4511,13.27,2.5432,0.2876,,,
37,2023/03/02 13:00,2,2,0,25.18,70.73,23.29,6496,541,0,17.82,24.77,1.4439,13.28,2.5297,0.2862,,,
38,2023/03/02 14:00,4,3,1,23.13,81.30,20.74,2639,621,0,18.44,24.73,1.4435,13.25,2.5325,0.2867,,,
39,2023/03/02 15:00,3,3,0,20.15,84.07,17.46,1100,614,0,18.43,24.76,1.4329,13.27,2.5113,0.2847,,,
40,2023/03/02 16:00,,,,19.95,84.08,17.26,330,654,0,18.65,24.80,1.4511,13.29,2.5392,0.2889,,,
41,2023/03/02 17:00,,,,19.44,84.31,16.75,34,719,0,18.70,24.78,1.4348,13.28,2.5123,0.2856,,,
42,2023/03/02 18:00,1,1,0,19.11,83.02,16.43,1,765,0,18.70,24.78,1.4478,13.28,2.5359,0.2882,,,
43,2023/03/02 19:00,1,1,0,15.48,82.75,13.23,0,755,0,18.77,24.78,1.4348,13.28,2.5132,0.2857,,,
44,2023/03/02 20:00,,,,12.72,83.50,11.16,0,707,0,18.73,24.73,1.4340,13.25,2.5159,0.2852,,,
45,2023/03/02 21:00,,,,11.50,84.28,10.35,0,708,0,18.49,24.75,1.4361,13.26,2.5185,0.2854,,,
46,2023/03/02 22:00,,,,10.73,84.58,9.86,0,722,0,18.22,24.73,1.4406,13.25,2.5279,0.2858,,,
47,2023/03/02 23:00,,,,10.68,84.38,9.82,0,733,0,18.21,24.69,1.4383,13.23,2.5277,0.2851,,,
48,2023/03/03 00:00,,,,10.94,83.67,9.99,0,746,0,17.72,24.71,1.4451,13.24,2.5381,0.2859,,,
49,2023/03/03 01:00,1,1,0,11.09,83.08,10.08,0,749,0,17.80,24.58,1.4478,13.16,2.5563,0.2856,,,
50,2023/03/03 02:00,1,1,0,11.20,82.62,10.15,0,747,0,17.54,24.55,1.4565,13.14,2.5748,0.2868,,,
51,2023/03/03 03:00,,,,11.39,82.46,10.27,0,738,0,17.45,24.49,1.4551,13.11,2.5789,0.2859,,,
52,2023/03/03 04:00,,,,11.30,82.15,10.22,0,724,0,17.39,24.48,1.4535,13.10,2.5765,0.2855,,,
53,2023/03/03 05:00,,,,11.51,81.89,10.35,1,738,0,17.10,24.52,1.4487,13.13,2.5638,0.2845,,,
54,2023/03/03 06:00,,,,13.26,81.66,11.54,286,759,0,16.81,24.46,1.4475,13.09,2.5682,0.2834,,,
55,2023/03/03 07:00,1,1,0,15.28,84.83,13.06,1779,703,0,16.86,24.52,1.4594,13.13,2.5834,0.2862,,,
56,2023/03/03 08:00,2,2,0,22.74,73.30,20.28,7958,551,0,16.76,24.47,1.4559,13.10,2.5818,0.2851,,,
57,2023/03/03 09:00,7,5,2,24.73,67.38,22.71,17608,548,0,16.67,24.40,1.4589,13.06,2.5948,0.2850,,,
58,2023/03/03 10:00,1,1,0,26.50,65.46,25.07,11053,557,0,17.15,24.56,1.4566,13.15,2.5740,0.2863,,,
59,2023/03/03 11:00,2,2,0,26.12,69.50,24.55,3231,557,0,17.41,24.60,1.4524,13.17,2.5627,0.2861,,,
60,2023/03/03 12:00,25,19,6,26.63,65.21,25.26,3895,565,0,17.65,24.54,1.4350,13.14,2.5374,0.2826,,,
61,2023/03/03 13:00,17,17,0,27.78,62.71,26.91,4785,559,0,18.08,24.57,1.4320,13.16,2.5288,0.2828,,,
62,2023/03/03 14:00,1,0,1,26.56,64.41,25.16,6207,561,0,18.20,24.69,1.4348,13.23,2.5220,0.2843,,,
63,2023/03/03 15:00,1,1,0,26.38,67.82,24.90,2909,589,0,18.68,24.68,1.4439,13.22,2.5388,0.2867,,,
64,2023/03/03 16:00,,,,24.94,72.38,22.97,1899,557,0,18.91,24.73,1.4283,13.25,2.5063,0.2843,,,
65,2023/03/03 17:00,2,0,2,20.58,79.02,17.90,254,595,0,18.83,24.71,1.4393,13.24,2.5278,0.2862,,,
66,2023/03/03 18:00,,,,18.66,81.81,15.99,1,692,0,19.03,24.72,1.4184,13.25,2.4896,0.2824,,,
67,2023/03/03 19:00,,,,16.26,82.51,13.86,0,746,0,19.02,24.74,1.4103,13.26,2.4741,0.2808,,,
68,2023/03/03 20:00,,,,13.91,82.75,12.02,0,764,0,19.15,24.71,1.4263,13.24,2.5045,0.2840,,,
69,2023/03/03 21:00,,,,12.64,83.02,11.11,0,774,0,18.37,24.66,1.4242,13.21,2.5068,0.2822,,,
70,2023/03/03 22:00,,,,11.84,83.61,10.57,0,768,0,18.73,24.62,1.4345,13.18,2.5290,0.2844,,,
71,2023/03/03 23:00,,,,11.74,84.96,10.50,0,762,0,18.43,24.59,1.4285,13.17,2.5207,0.2827,,,
72,2023/03/04 00:00,,,,11.25,84.39,10.18,0,738,0,18.34,24.50,1.4255,13.12,2.5246,0.2814,,,
73,2023/03/04 01:00,,,,10.81,83.87,9.90,0,742,0,18.23,24.50,1.4290,13.11,2.5317,0.2819,,,
74,2023/03/04 02:00,1,1,0,10.92,83.64,9.98,0,755,0,17.84,24.47,1.4409,13.10,2.5551,0.2835,,,
75,2023/03/04 03:00,,,,11.22,82.77,10.16,0,761,0,17.75,24.45,1.4385,13.09,2.5528,0.2828,,,
76,2023/03/04 04:00,,,,11.25,82.38,10.18,0,755,0,17.32,24.41,1.4415,13.06,2.5629,0.2825,,,
77,2023/03/04 05:00,1,1,0,11.37,82.27,10.26,1,761,0,17.42,24.40,1.4393,13.06,2.5597,0.2822,,,
78,2023/03/04 06:00,,,,13.16,82.66,11.47,295,780,0,17.35,24.40,1.4441,13.05,2.5688,0.2830,,,
79,2023/03/04 07:00,,,,15.32,84.54,13.09,2128,728,0,17.15,24.39,1.4347,13.05,2.5527,0.2808,,,
80,2023/03/04 08:00,,,,23.08,71.60,20.67,8479,588,0,16.80,24.41,1.4479,13.06,2.5745,0.2831,,,
81,2023/03/04 09:00,2,2,0,24.93,67.72,22.96,16624,577,0,17.09,24.37,1.4477,13.04,2.5776,0.2832,,,
82,2023/03/04 10:00,7,7,0,26.30,61.87,24.79,10146,573,0,17.26,24.45,1.4416,13.09,2.5588,0.2828,,,
83,2023/03/04 11:00,6,6,0,26.04,64.29,24.44,3395,592,0,17.53,24.44,1.4243,13.08,2.5286,0.2796,,,
84,2023/03/04 12:00,34,28,6,26.58,56.99,25.18,4030,590,0,17.82,24.47,1.4364,13.10,2.5470,0.2826,,,
85,2023/03/04 13:00,27,26,1,26.75,55.55,25.41,6135,572,0,18.03,24.46,1.4232,13.09,2.5249,0.2802,,,
86,2023/03/04 14:00,3,3,0,25.84,63.47,24.17,6358,571,0,18.30,24.54,1.4174,13.14,2.5068,0.2799,,,
87,2023/03/04 15:00,1,1,0,26.28,66.62,24.76,3701,571,0,18.71,24.51,1.4291,13.12,2.5307,0.2826,,,
88,2023/03/04 16:00,1,1,0,24.89,72.32,22.92,2087,569,0,18.96,24.62,1.4104,13.18,2.4865,0.2799,,,
89,2023/03/04 17:00,2,0,2,21.01,78.81,18.36,302,598,0,19.21,24.55,1.3979,13.15,2.4708,0.2774,,,
90,2023/03/04 18:00,,,,19.42,80.14,16.72,1,686,0,18.84,24.60,1.4243,13.18,2.5126,0.2825,,,
91,2023/03/04 19:00,1,1,0,16.95,81.72,14.45,0,748,0,18.86,24.56,1.4124,13.15,2.4957,0.2798,,,
92,2023/03/04 20:00,,,,14.18,81.89,12.22,0,730,0,18.83,24.57,1.4025,13.16,2.4772,0.2779,,,
93,2023/03/04 21:00,,,,12.71,83.33,11.16,0,734,0,18.81,24.51,1.4255,13.12,2.5241,0.2820,,,
94,2023/03/04 22:00,,,,12.01,83.40,10.68,0,737,0,18.53,24.42,1.4144,13.07,2.5138,0.2788,,,
95,2023/03/04 23:00,,,,11.31,83.76,10.22,0,755,0,18.32,24.46,1.4115,13.09,2.5040,0.2783,,,
96,2023/03/05 00:00,2,1,1,11.25,84.58,10.19,0,761,0,18.13,24.40,1.4107,13.06,2.5085,0.2775,,,
97,2023/03/05 01:00,1,1,0,11.28,85.34,10.20,0,778,0,17.94,24.40,1.4184,13.06,2.5227,0.2787,,,
98,2023/03/05 02:00,,,,11.15,85.45,10.12,0,785,0,17.95,24.35,1.4120,13.03,2.5160,0.2771,,,
99,2023/03/05 03:00,,,,10.85,84.59,9.93,0,786,0,17.95,24.32,1.4155,13.01,2.5261,0.2776,,,
100,2023/03/05 04:00,,,,10.97,84.07,10.01,0,801,0,17.70,24.25,1.4204,12.97,2.5423,0.2777,,,
101,2023/03/05 05:00,,,,11.54,83.56,10.37,1,807,0,17.52,24.25,1.4220,12.97,2.5442,0.2779,,,
102,2023/03/05 06:00,1,1,0,13.01,83.36,11.36,316,825,0,17.48,24.25,1.4285,12.97,2.5564,0.2791,,,
103,2023/03/05 07:00,,,,14.82,85.04,12.70,1698,780,0,17.14,24.30,1.4389,13.00,2.5698,0.2810,,,
104,2023/03/05 08:00,,,,22.04,74.89,19.48,6982,597,0,17.25,24.22,1.4220,12.95,2.5481,0.2773,,,
105,2023/03/05 09:00,,,,24.39,71.79,22.28,11744,559,0,17.18,24.22,1.4393,12.95,2.5792,0.2805,,,
106,2023/03/05 10:00,2,2,0,25.06,71.38,23.14,7307,571,0,17.35,24.25,1.4271,12.97,2.5534,0.2787,,,
107,2023/03/05 11:00,1,1,0,26.02,72.14,24.40,5923,586,0,17.50,24.37,1.4093,13.04,2.5095,0.2762,,,
108,2023/03/05 12:00,1,0,1,26.13,71.73,24.56,5992,596,0,17.89,24.44,1.4067,13.08,2.4982,0.2766,,,
109,2023/03/05 13:00,4,4,0,27.37,67.30,26.31,9575,621,0,18.28,24.45,1.3997,13.09,2.4840,0.2759,,,
110,2023/03/05 14:00,,,,25.91,71.99,24.26,6320,620,0,18.38,24.44,1.4055,13.08,2.4957,0.2770,,,
111,2023/03/05 15:00,,,,24.94,77.21,22.97,3191,597,0,18.64,24.49,1.3980,13.11,2.4776,0.2762,,,
112,2023/03/05 16:00,2,0,2,21.87,81.27,19.29,1341,537,0,18.72,24.52,1.3976,13.13,2.4739,0.2764,,,
113,2023/03/05 17:00,,,,19.65,81.32,16.96,188,574,0,19.19,24.51,1.3959,13.12,2.4718,0.2766,,,
114,2023/03/05 18:00,,,,19.60,79.91,16.91,1,654,0,19.23,24.50,1.3933,13.12,2.4675,0.2761,,,
115,2023/03/05 19:00,,,,15.58,78.55,13.30,0,691,0,18.97,24.47,1.4011,13.10,2.4846,0.2771,,,
116,2023/03/05 20:00,,,,13.14,80.61,11.46,0,684,0,19.09,24.48,1.3975,13.11,2.4770,0.2767,,,
117,2023/03/05 21:00,,,,12.75,82.22,11.18,0,696,0,18.63,24.47,1.3926,13.10,2.4693,0.2751,,,
118,2023/03/05 22:00,,,,12.50,82.62,11.01,0,710,0,18.57,24.39,1.3994,13.05,2.4901,0.2757,,,
119,2023/03/05 23:00,,,,12.03,82.72,10.69,0,711,0,18.67,24.39,1.3914,13.05,2.4760,0.2742,,,
120,2023/03/06 00:00,1,1,0,11.79,83.69,10.53,0,727,0,18.17,24.31,1.4056,13.00,2.5092,0.2758,,,
121,2023/03/06 01:00,,,,11.50,83.72,10.34,0,746,0,18.16,24.30,1.4033,12.99,2.5065,0.2753,,,
122,2023/03/06 02:00,,,,11.24,84.18,10.18,0,781,0,17.70,24.25,1.4015,12.97,2.5082,0.2740,,,
123,2023/03/06 03:00,1,1,0,11.20,84.59,10.15,0,817,0,17.62,24.18,1.4112,12.93,2.5328,0.2754,,,
124,2023/03/06 04:00,,,,12.23,84.65,10.83,15,846,0,17.51,24.23,1.4121,12.96,2.5289,0.2757,,,
125,2023/03/06 05:00,,,,14.51,83.31,12.47,418,860,0,17.22,24.20,1.4158,12.94,2.5383,0.2759,,,
126,2023/03/06 06:00,,,,16.10,82.68,13.73,1345,816,0,17.23,24.20,1.4126,12.94,2.5327,0.2753,,,
127,2023/03/06 07:00,,,,19.80,81.09,17.11,2867,736,0,17.04,24.23,1.4193,12.95,2.5421,0.2765,,,
128,2023/03/06 08:00,,,,20.70,81.59,18.03,3463,672,0,17.30,24.18,1.4224,12.93,2.5525,0.2771,,,
129,2023/03/06 09:00,,,,21.16,81.74,18.51,4147,647,0,16.59,24.21,1.4145,12.95,2.5350,0.2749,,,
130,2023/03/06 10:00,,,,23.08,81.88,20.68,4123,629,0,17.24,24.26,1.4192,12.97,2.5390,0.2770,,,
131,2023/03/06 11:00,1,0,1,24.95,79.40,22.99,3641,569,0,17.42,24.25,1.4165,12.97,2.5352,0.2766,,,
132,2023/03/06 12:00,6,3,3,27.61,69.36,26.66,4344,585,0,17.62,24.33,1.4070,13.02,2.5092,0.2756,,,
133,2023/03/06 13:00,7,7,0,28.19,63.94,27.52,6690,593,0,17.65,24.32,1.4092,13.01,2.5144,0.2760,,,
134,2023/03/06 14:00,,,,25.23,70.16,23.35,2189,607,0,18.54,24.38,1.3968,13.05,2.4860,0.2751,,,
135,2023/03/06 15:00,1,1,0,23.39,69.56,21.05,1619,594,0,18.98,24.46,1.3834,13.09,2.4543,0.2736,,,
136,2023/03/06 16:00,1,1,1,21.24,72.61,18.60,1255,595,0,19.08,24.49,1.3916,13.11,2.4657,0.2755,,,
137,2023/03/06 17:00,,,,19.49,77.96,16.80,178,634,0,19.20,24.42,1.3955,13.07,2.4793,0.2760,,,
138,2023/03/06 18:00,,,,19.05,78.34,16.37,1,708,0,19.20,24.44,1.3948,13.08,2.4765,0.2760,,,
139,2023/03/06 19:00,,,,14.94,78.75,12.80,0,737,0,19.30,24.44,1.3936,13.08,2.4743,0.2759,,,
140,2023/03/06 20:00,,,,12.27,80.54,10.85,0,718,0,19.05,24.43,1.3924,13.08,2.4730,0.2752,,,
141,2023/03/06 21:00,,,,10.89,81.70,9.96,0,736,0,19.01,24.37,1.3875,13.04,2.4708,0.2738,,,
142,2023/03/06 22:00,,,,11.88,83.81,10.59,0,777,0,18.56,24.29,1.3974,12.99,2.4962,0.2746,,,
143,2023/03/06 23:00,1,1,0,11.37,83.85,10.26,0,797,0,18.23,24.28,1.3892,12.99,2.4825,0.2725,,,
144,2023/03/07 00:00,,,,10.86,83.57,9.94,0,822,0,18.13,24.26,1.3916,12.97,2.4889,0.2727,,,
145,2023/03/07 01:00,,,,11.08,83.24,10.08,0,846,0,18.12,24.20,1.3911,12.94,2.4942,0.2722,,,
146,2023/03/07 02:00,,,,11.23,83.01,10.17,0,863,0,17.71,24.21,1.3976,12.94,2.5053,0.2730,,,
147,2023/03/07 03:00,,,,11.48,82.41,10.33,0,868,0,17.65,24.19,1.3990,12.93,2.5101,0.2731,,,
148,2023/03/07 04:00,,,,11.42,82.26,10.29,0,865,0,17.56,24.16,1.4059,12.91,2.5258,0.2741,,,
149,2023/03/07 05:00,,,,11.69,82.02,10.47,2,858,0,17.24,24.12,1.4110,12.89,2.5384,0.2745,,,
150,2023/03/07 06:00,,,,13.10,82.35,11.43,217,874,0,17.11,24.08,1.3996,12.87,2.5222,0.2719,,,
151,2023/03/07 07:00,,,,15.54,84.69,13.27,1864,816,0,17.07,24.07,1.4147,12.87,2.5501,0.2747,,,
152,2023/03/07 08:00,2,1,1,22.23,69.98,19.69,8896,627,0,16.91,24.07,1.4163,12.86,2.5532,0.2748,,,
153,2023/03/07 09:00,3,3,0,25.41,66.90,23.58,18579,602,0,17.13,24.18,1.4126,12.93,2.5350,0.2751,,,
154,2023/03/07 10:00,2,1,1,27.08,62.42,25.89,9239,584,0,17.46,24.25,1.3979,12.96,2.5020,0.2730,,,
155,2023/03/07 11:00,8,8,0,27.01,61.72,25.78,2413,599,0,17.78,24.24,1.3910,12.96,2.4900,0.2721,,,
156,2023/03/07 12:00,31,30,2,28.11,54.99,27.39,2782,595,0,18.52,24.33,1.3871,13.02,2.4739,0.2728,,,
157,2023/03/07 13:00,17,15,2,29.33,51.32,29.29,4980,583,0,19.07,24.36,1.3843,13.03,2.4657,0.2732,,,
158,2023/03/07 14:00,6,5,1,27.30,59.11,26.20,3645,583,0,19.69,24.44,1.3731,13.08,2.4385,0.2722,,,
159,2023/03/07 15:00,,,,24.80,71.92,22.79,839,594,0,19.99,24.49,1.3600,13.11,2.4099,0.2704,,,
160,2023/03/07 16:00,,,,20.43,80.72,17.75,28,657,0,19.98,24.46,1.3648,13.09,2.4211,0.2711,,,
161,2023/03/07 17:00,,,,18.06,80.75,15.43,0,735,0,20.39,24.44,1.3633,13.08,2.4205,0.2712,,,
162,2023/03/07 18:00,,,,14.39,76.76,12.37,0,697,0,19.73,24.44,1.3662,13.08,2.4261,0.2709,,,
163,2023/03/07 19:00,1,0,1,12.81,77.86,11.22,0,691,0,20.12,24.45,1.3727,13.09,2.4365,0.2728,,,
164,2023/03/07 20:00,,,,12.81,83.23,11.22,0,731,0,19.62,24.36,1.3667,13.03,2.4347,0.2703,,,
165,2023/03/07 21:00,,,,13.01,83.70,11.36,0,742,0,19.91,24.42,1.3808,13.07,2.4538,0.2739,,,
166,2023/03/07 22:00,,,,12.81,83.79,11.22,0,768,0,19.60,24.31,1.3631,13.00,2.4338,0.2692,,,
167,2023/03/07 23:00,,,,12.23,83.75,10.83,0,791,0,19.49,24.34,1.3651,13.02,2.4341,0.2697,,,
168,2023/03/08 00:00,,,,11.60,83.70,10.41,0,801,0,19.12,24.28,1.3700,12.99,2.4482,0.2699,,,
169,2023/03/08 01:00,,,,10.96,83.34,10.00,0,809,0,18.65,24.18,1.3783,12.93,2.4733,0.2702,,,
170,2023/03/08 02:00,,,,10.95,83.40,9.99,0,825,0,18.53,24.18,1.3757,12.93,2.4688,0.2696,,,
171,2023/03/08 03:00,,,,10.71,83.16,9.84,0,839,0,18.30,24.13,1.3776,12.90,2.4773,0.2693,,,
172,2023/03/08 04:00,,,,11.17,82.80,10.13,0,842,0,18.19,24.04,1.3855,12.84,2.5014,0.2702,,,
173,2023/03/08 05:00,,,,11.40,82.21,10.28,2,840,0,17.98,24.02,1.3859,12.83,2.5042,0.2699,,,
174,2023/03/08 06:00,,,,12.85,82.63,11.25,210,864,0,17.64,24.01,1.3795,12.83,2.4935,0.2681,,,
175,2023/03/08 07:00,,,,15.60,85.15,13.32,1816,807,0,17.43,24.02,1.3783,12.84,2.4902,0.2677,,,
176,2023/03/08 08:00,,,,21.16,74.05,18.52,7563,681,0,17.30,24.08,1.3872,12.87,2.4998,0.2697,,,
177,2023/03/08 09:00,,,,25.44,64.05,23.62,21327,589,0,17.76,24.08,1.3936,12.87,2.5111,0.2715,,,
178,2023/03/08 10:00,1,1,0,27.11,58.56,25.93,8166,606,0,17.85,24.12,1.3823,12.89,2.4875,0.2696,,,
179,2023/03/08 11:00,2,2,0,27.13,56.84,25.96,2519,616,0,18.23,24.16,1.3717,12.91,2.4644,0.2683,,,
180,2023/03/08 12:00,19,12,7,27.83,50.19,26.99,2821,589,0,18.90,24.22,1.3667,12.95,2.4491,0.2685,,,
181,2023/03/08 13:00,11,11,0,29.16,44.30,29.02,4916,618,0,19.56,24.23,1.3620,12.95,2.4397,0.2684,,,
182,2023/03/08 14:00,4,3,2,28.39,49.30,27.83,5287,634,0,19.89,24.27,1.3513,12.98,2.4161,0.2671,,,
183,2023/03/08 15:00,,,,26.66,49.44,25.29,1613,609,0,20.06,24.33,1.3479,13.01,2.4044,0.2670,,,
184,2023/03/08 16:00,2,2,0,25.40,61.19,23.58,971,589,0,20.42,24.38,1.3487,13.04,2.4012,0.2679,,,
185,2023/03/08 17:00,,,,22.26,82.23,19.74,140,649,0,20.54,24.36,1.3352,13.03,2.3789,0.2652,,,
186,2023/03/08 18:00,,,,18.66,83.89,16.00,1,726,0,20.40,24.37,1.3432,13.04,2.3920,0.2667,,,
187,2023/03/08 19:00,,,,16.11,81.36,13.74,0,760,0,20.48,24.34,1.3418,13.02,2.3928,0.2663,,,
188,2023/03/08 20:00,,,,13.72,79.50,11.87,0,714,0,20.60,24.32,1.3457,13.01,2.4013,0.2671,,,
189,2023/03/08 21:00,,,,12.58,81.08,11.07,0,723,0,19.78,24.27,1.3483,12.98,2.4113,0.2663,,,
190,2023/03/08 22:00,,,,12.09,81.92,10.73,1,735,0,19.96,24.21,1.3487,12.94,2.4176,0.2662,,,
191,2023/03/08 23:00,,,,11.64,81.89,10.43,0,749,0,19.53,24.16,1.3551,12.92,2.4341,0.2666,,,
192,2023/03/09 00:00,2,2,0,11.03,82.40,10.04,0,762,0,19.40,24.07,1.3562,12.87,2.4449,0.2661,,,
193,2023/03/09 01:00,,,,11.11,82.06,10.09,0,772,0,19.02,24.02,1.3547,12.84,2.4471,0.2651,,,
194,2023/03/09 02:00,,,,11.55,80.33,10.37,0,771,0,18.88,24.00,1.3549,12.83,2.4494,0.2648,,,
195,2023/03/09 03:00,,,,11.53,79.38,10.36,0,772,0,18.73,24.01,1.3592,12.83,2.4570,0.2655,,,
196,2023/03/09 04:00,,,,11.47,78.91,10.32,0,775,0,18.29,23.98,1.3538,12.81,2.4495,0.2638,,,
197,2023/03/09 05:00,,,,11.67,79.65,10.46,2,783,0,17.99,23.96,1.3528,12.80,2.4499,0.2630,,,
198,2023/03/09 06:00,,,,13.70,80.52,11.86,394,808,0,17.72,23.91,1.3652,12.77,2.4773,0.2648,,,
199,2023/03/09 07:00,3,3,0,16.74,79.63,14.26,2380,711,0,17.86,23.89,1.3643,12.76,2.4780,0.2646,,,
200,2023/03/09 08:00,2,2,0,22.40,67.62,19.89,7428,598,0,17.63,23.89,1.3680,12.76,2.4850,0.2651,,,
201,2023/03/09 09:00,1,0,1,26.04,64.98,24.43,15306,608,0,17.67,23.99,1.3693,12.82,2.4769,0.2661,,,
202,2023/03/09 10:00,4,4,0,27.45,58.48,26.42,6935,603,0,18.25,24.02,1.3524,12.84,2.4431,0.2637,,,
203,2023/03/09 11:00,3,2,1,27.88,56.02,27.05,3010,611,0,18.64,24.00,1.3461,12.83,2.4336,0.2628,,,
204,2023/03/09 12:00,23,16,8,28.51,48.17,28.01,3271,606,0,19.21,24.12,1.3442,12.89,2.4180,0.2639,,,
205,2023/03/09 13:00,19,18,1,28.76,41.99,28.39,9936,609,0,19.76,24.17,1.3391,12.92,2.4039,0.2638,,,
206,2023/03/09 14:00,7,7,0,27.38,40.92,26.32,4003,617,0,20.21,24.18,1.3348,12.93,2.3957,0.2636,,,
207,2023/03/09 15:00,2,2,0,25.94,52.89,24.30,1589,599,0,20.35,24.20,1.3396,12.94,2.4024,0.2648,,,
208,2023/03/09 16:00,1,1,0,24.79,67.49,22.78,810,600,0,20.45,24.24,1.3213,12.96,2.3655,0.2616,,,
209,2023/03/09 17:00,2,1,1,22.41,82.35,19.90,117,652,0,20.85,24.29,1.3171,12.99,2.3528,0.2616,,,
210,2023/03/09 18:00,,,,19.61,83.38,16.92,1,726,0,20.73,24.23,1.3148,12.96,2.3545,0.2606,,,
211,2023/03/09 19:00,,,,17.44,78.64,14.88,0,721,0,20.80,24.24,1.3223,12.96,2.3672,0.2622,,,
212,2023/03/09 20:00,,,,15.73,74.25,13.42,0,660,0,20.66,24.20,1.3169,12.94,2.3615,0.2607,,,
213,2023/03/09 21:00,1,1,0,15.17,73.74,12.97,0,656,0,20.46,24.11,1.3292,12.89,2.3922,0.2623,,,
214,2023/03/09 22:00,,,,14.89,76.60,12.76,0,658,0,19.97,24.07,1.3441,12.86,2.4237,0.2644,,,
215,2023/03/09 23:00,,,,14.73,76.26,12.63,0,655,0,19.74,24.05,1.3223,12.85,2.3859,0.2598,,,
216,2023/03/10 00:00,,,,13.62,80.48,11.80,0,690,0,19.57,24.00,1.3280,12.82,2.4016,0.2603,,,
217,2023/03/10 01:00,,,,13.49,82.10,11.71,0,706,0,19.37,24.03,1.3405,12.84,2.4211,0.2627,,,
218,2023/03/10 02:00,,,,13.19,83.22,11.49,0,719,0,19.41,23.97,1.3270,12.81,2.4023,0.2598,,,
219,2023/03/10 03:00,,,,12.83,83.75,11.24,0,732,0,19.20,23.95,1.3377,12.80,2.4235,0.2615,,,
220,2023/03/10 04:00,,,,12.48,84.06,11.00,0,748,0,19.14,23.85,1.3362,12.74,2.4313,0.2604,,,
221,2023/03/10 05:00,,,,12.70,85.14,11.15,2,754,0,18.94,23.80,1.3411,12.71,2.4452,0.2609,,,
222,2023/03/10 06:00,,,,13.36,85.74,11.61,505,767,0,18.46,23.80,1.3380,12.71,2.4393,0.2597,,,
223,2023/03/10 07:00,,,,18.57,83.44,15.91,1772,652,0,18.51,23.86,1.3465,12.74,2.4491,0.2617,,,
224,2023/03/10 08:00,,,,22.11,74.81,19.56,4746,616,0,18.16,23.84,1.3435,12.73,2.4457,0.2606,,,
225,2023/03/10 09:00,3,1,2,25.43,71.02,23.62,13832,604,0,18.26,23.79,1.3482,12.70,2.4592,0.2613,,,
226,2023/03/10 10:00,6,6,0,26.81,55.13,25.50,8134,608,0,18.78,23.82,1.3428,12.72,2.4462,0.2611,,,
227,2023/03/10 11:00,2,1,1,27.26,62.07,26.14,2644,592,0,18.89,23.96,1.3247,12.80,2.3988,0.2587,,,
228,2023/03/10 12:00,21,18,3,29.81,56.32,30.05,3193,578,0,19.36,23.97,1.3302,12.81,2.4080,0.2604,,,
229,2023/03/10 13:00,21,19,3,30.60,52.81,31.37,15127,572,0,20.05,24.03,1.3281,12.84,2.3984,0.2611,,,
230,2023/03/10 14:00,,,,27.92,63.07,27.12,3041,604,0,20.68,24.08,1.2987,12.87,2.3400,0.2564,,,
231,2023/03/10 15:00,,,,27.46,59.98,26.44,1984,593,0,21.13,24.08,1.2979,12.87,2.3389,0.2568,,,
232,2023/03/10 16:00,,,,25.79,69.92,24.10,1288,584,0,21.02,24.13,1.3026,12.90,2.3423,0.2579,,,
233,2023/03/10 17:00,1,0,1,23.21,81.70,20.83,225,642,0,21.44,24.11,1.3052,12.88,2.3498,0.2587,,,
234,2023/03/10 18:00,1,1,0,19.54,83.51,16.85,1,724,0,20.85,24.14,1.2971,12.90,2.3317,0.2566,,,
235,2023/03/10 19:00,,,,16.37,77.43,13.95,0,716,0,20.93,24.06,1.3092,12.86,2.3618,0.2586,,,
236,2023/03/10 20:00,,,,13.56,73.16,11.76,0,661,0,20.32,24.06,1.3162,12.86,2.3739,0.2593,,,
237,2023/03/10 21:00,,,,11.59,79.32,10.40,0,690,0,20.89,24.02,1.3016,12.83,2.3520,0.2568,,,
238,2023/03/10 22:00,,,,11.24,79.82,10.18,0,703,0,20.63,23.98,1.3104,12.81,2.3719,0.2580,,,
239,2023/03/10 23:00,1,1,0,10.74,80.57,9.86,0,707,0,19.92,23.96,1.3143,12.80,2.3806,0.2578,,,
240,2023/03/11 00:00,,,,11.35,78.41,10.25,0,711,0,19.46,23.82,1.3187,12.72,2.4026,0.2572,,,
241,2023/03/11 01:00,,,,11.87,76.49,10.59,0,708,0,19.55,23.81,1.3140,12.71,2.3946,0.2564,,,
242,2023/03/11 02:00,,,,12.35,72.86,10.91,0,693,0,19.28,23.79,1.3208,12.70,2.4094,0.2572,,,
243,2023/03/11 03:00,,,,12.25,73.30,10.84,0,697,0,19.17,23.68,1.3175,12.64,2.4139,0.2558,,,
244,2023/03/11 04:00,1,1,0,12.33,72.47,10.89,0,702,0,18.74,23.66,1.3330,12.63,2.4452,0.2581,,,
245,2023/03/11 05:00,1,1,0,12.26,73.98,10.85,7,720,0,18.38,23.64,1.3323,12.62,2.4455,0.2574,,,
246,2023/03/11 06:00,,,,13.44,77.56,11.67,603,746,0,18.23,23.60,1.3280,12.59,2.4415,0.2562,,,
247,2023/03/11 07:00,,,,17.91,77.67,15.30,3370,647,0,18.29,23.59,1.3216,12.58,2.4315,0.2549,,,
248,2023/03/11 08:00,,,,23.47,66.86,21.14,9866,582,0,18.14,23.61,1.3506,12.60,2.4830,0.2605,,,